Terminal Aerodrome Forecast
Issued by NWS

Home | Current Version | Previous Version | Text Only | Print | Product List | Glossary On
Versions: 1 2 3 4 5 6 7 8 9 10 11 12
000
FTUS43 KTOP 300500
TAFMHK
TAF
KMHK 300520Z 3006/3106 02005KT P6SM SCT070
     FM300900 05003KT P6SM VCSH BKN070=

USA.gov is the U.S. government's official web portal to all federal, state and local government web resources and services.